| time (UTC) | temp C | wind direction | speed KPH | gust KPH | rain 1hr cm | rain 24hr cm | rain mn cm | humidity % | barometer mb |
| 20260507034511 | 15 | 304 | 30.6 | 61.2 | 0.00 | 0.00 | 0.00 | 65 | 1007.9 |
| 20260507033007 | 15 | 348 | 35.4 | 72.4 | 0.00 | 0.00 | 0.00 | 65 | 1007.9 |
| 20260507031506 | 15 | 322 | 25.7 | 66.0 | 0.00 | 0.00 | 0.00 | 65 | 1007.6 |
| 20260507030005 | 15 | 323 | 40.2 | 77.2 | 0.00 | 0.00 | 0.00 | 66 | 1007.5 |
| 20260507024600 | 15 | 340 | 41.8 | 69.2 | 0.00 | 0.00 | 0.00 | 66 | 1007.4 |
| 20260507023057 | 15 | 337 | 32.2 | 70.8 | 0.00 | 0.00 | 0.00 | 67 | 1007.3 |
| 20260507021604 | 15 | 347 | 24.1 | 66.0 | 0.00 | 0.00 | 0.00 | 67 | 1007.4 |
| 20260507020054 | 15 | 324 | 20.9 | 53.1 | 0.00 | 0.00 | 0.00 | 66 | 1007.3 |
| 20260507014556 | 15 | 344 | 29.0 | 49.9 | 0.00 | 0.00 | 0.00 | 66 | 1007.2 |
| 20260507013050 | 15 | 351 | 29.0 | 54.7 | 0.00 | 0.00 | 0.00 | 67 | 1007.2 |
| 20260507011555 | 16 | 319 | 33.8 | 67.6 | 0.00 | 0.00 | 0.00 | 67 | 1007.0 |
| 20260507010047 | 16 | 332 | 32.2 | 80.5 | 0.00 | 0.00 | 0.00 | 66 | 1006.9 |
| 20260507004545 | 16 | 342 | 37.0 | 72.4 | 0.00 | 0.00 | 0.00 | 65 | 1007.0 |
| 20260507003042 | 16 | 325 | 17.7 | 56.3 | 0.00 | 0.00 | 0.00 | 64 | 1006.8 |
| 20260507001540 | 16 | 353 | 37.0 | 67.6 | 0.00 | 0.00 | 0.00 | 64 | 1006.6 |
| 20260507000038 | 16 | 333 | 40.2 | 70.8 | 0.00 | 0.00 | 0.00 | 65 | 1006.5 |
| 20260506234548 | 16 | 344 | 37.0 | 78.9 | 0.00 | 0.00 | 0.00 | 66 | 1006.1 |
| 20260506233034 | 16 | 339 | 41.8 | 78.9 | 0.00 | 0.00 | 0.00 | 70 | 1006.3 |
| 20260506231532 | 16 | 321 | 35.4 | 66.0 | 0.00 | 0.00 | 0.00 | 70 | 1006.2 |
| 20260506230032 | 17 | 309 | 32.2 | 75.6 | 0.00 | 0.00 | 0.00 | 68 | 1006.1 |
| 20260506224527 | 17 | 319 | 11.3 | 46.7 | 0.00 | 0.00 | 0.00 | 67 | 1005.8 |
| 20260506223024 | 16 | 289 | 0.0 | 3.2 | 0.00 | 0.00 | 0.00 | 69 | 1005.6 |
| 20260506221523 | 16 | 290 | 0.0 | 0.0 | 0.00 | 0.00 | 0.00 | 69 | 1005.3 |
| 20260506220028 | 17 | 268 | 11.3 | 24.1 | 0.00 | 0.00 | 0.00 | 68 | 1004.9 |
| 20260506214517 | 17 | 217 | 1.6 | 24.1 | 0.00 | 0.00 | 0.00 | 66 | 1004.3 |
| 20260506213022 | 17 | 224 | 6.4 | 29.0 | 0.00 | 0.00 | 0.00 | 66 | 1004.0 |
| 20260506211516 | 17 | 220 | 8.0 | 30.6 | 0.00 | 0.00 | 0.00 | 66 | 1004.0 |
| 20260506210015 | 17 | 235 | 9.7 | 29.0 | 0.00 | 0.00 | 0.00 | 65 | 1003.7 |
| 20260506204515 | 18 | 213 | 17.7 | 38.6 | 0.00 | 0.00 | 0.00 | 65 | 1003.7 |
| 20260506203023 | 18 | 210 | 16.1 | 38.6 | 0.00 | 0.00 | 0.00 | 65 | 1003.7 |
| 20260506201514 | 18 | 192 | 12.9 | 37.0 | 0.00 | 0.00 | 0.00 | 63 | 1003.6 |
| 20260506200014 | 18 | 198 | 4.8 | 33.8 | 0.00 | 0.00 | 0.00 | 62 | 1003.6 |
| 20260506194513 | 19 | 206 | 22.5 | 48.3 | 0.00 | 0.00 | 0.00 | 61 | 1003.1 |
| 20260506193016 | 19 | 246 | 24.1 | 57.9 | 0.00 | 0.00 | 0.00 | 59 | 1002.9 |
| 20260506191512 | 19 | 213 | 30.6 | 67.6 | 0.00 | 0.00 | 0.00 | 59 | 1002.8 |
| 20260506190010 | 20 | 215 | 29.0 | 70.8 | 0.00 | 0.00 | 0.00 | 58 | 1002.8 |
| 20260506184511 | 20 | 225 | 38.6 | 70.8 | 0.00 | 0.00 | 0.00 | 57 | 1002.6 |
| 20260506183010 | 20 | 235 | 35.4 | 64.4 | 0.00 | 0.00 | 0.00 | 57 | 1002.5 |
| 20260506181509 | 20 | 222 | 30.6 | 74.0 | 0.00 | 0.00 | 0.00 | 55 | 1002.4 |
| 20260506180014 | 21 | 225 | 37.0 | 80.5 | 0.00 | 0.00 | 0.00 | 54 | 1002.2 |
| 20260506174508 | 21 | 224 | 33.8 | 67.6 | 0.00 | 0.00 | 0.00 | 53 | 1002.2 |
| 20260506173007 | 21 | 247 | 33.8 | 75.6 | 0.00 | 0.00 | 0.00 | 52 | 1002.2 |
| 20260506171515 | 22 | 240 | 30.6 | 75.6 | 0.00 | 0.00 | 0.00 | 53 | 1002.1 |
| 20260506170008 | 22 | 214 | 35.4 | 70.8 | 0.00 | 0.00 | 0.00 | 52 | 1002.0 |
| 20260506164505 | 22 | 225 | 33.8 | 69.2 | 0.00 | 0.00 | 0.00 | 51 | 1002.1 |
| 20260506163004 | 23 | 210 | 17.7 | 75.6 | 0.00 | 0.00 | 0.00 | 49 | 1002.2 |
| 20260506161502 | 23 | 240 | 29.0 | 75.6 | 0.00 | 0.00 | 0.00 | 48 | 1002.3 |
| 20260506160001 | 23 | 230 | 25.7 | 85.3 | 0.00 | 0.00 | 0.00 | 48 | 1002.5 |
| 20260506154600 | 23 | 230 | 27.4 | 82.1 | 0.00 | 0.00 | 0.00 | 49 | 1002.5 |
| 20260506153100 | 23 | 226 | 35.4 | 90.1 | 0.00 | 0.00 | 0.00 | 48 | 1002.6 |
| 20260506151608 | 23 | 246 | 38.6 | 75.6 | 0.00 | 0.00 | 0.00 | 47 | 1002.5 |
| 20260506144606 | 23 | 208 | 37.0 | 86.9 | 0.00 | 0.00 | 0.00 | 45 | 1002.6 |
| 20260506143100 | 24 | 235 | 22.5 | 72.4 | 0.00 | 0.00 | 0.00 | 43 | 1002.5 |
| 20260506141557 | 25 | 230 | 29.0 | 80.5 | 0.00 | 0.00 | 0.00 | 41 | 1002.7 |
| 20260506140105 | 25 | 210 | 22.5 | 85.3 | 0.00 | 0.00 | 0.00 | 41 | 1002.6 |
| 20260506134552 | 25 | 246 | 29.0 | 67.6 | 0.00 | 0.00 | 0.00 | 41 | 1002.9 |
| 20260506133114 | 25 | 213 | 30.6 | 83.7 | 0.00 | 0.00 | 0.00 | 41 | 1002.9 |
| 20260506131546 | 25 | 205 | 35.4 | 67.6 | 0.00 | 0.00 | 0.00 | 43 | 1003.2 |
| 20260506130057 | 24 | 203 | 27.4 | 64.4 | 0.00 | 0.00 | 0.00 | 42 | 1003.4 |
| 20260506124543 | 24 | 235 | 32.2 | 61.2 | 0.00 | 0.00 | 0.00 | 42 | 1003.5 |
| 20260506123042 | 24 | 208 | 20.9 | 67.6 | 0.00 | 0.00 | 0.00 | 41 | 1003.7 |
| 20260506121542 | 24 | 225 | 27.4 | 77.2 | 0.00 | 0.00 | 0.00 | 40 | 1003.9 |
| 20260506120043 | 24 | 235 | 16.1 | 51.5 | 0.00 | 0.00 | 0.00 | 40 | 1004.0 |
| 20260506114542 | 23 | 184 | 22.5 | 59.5 | 0.00 | 0.00 | 0.00 | 43 | 1004.1 |
| 20260506113035 | 23 | 176 | 35.4 | 54.7 | 0.00 | 0.00 | 0.00 | 45 | 1004.4 |
| 20260506111537 | 23 | 212 | 37.0 | 66.0 | 0.00 | 0.00 | 0.00 | 46 | 1004.7 |
| 20260506110036 | 23 | 188 | 24.1 | 61.2 | 0.00 | 0.00 | 0.00 | 48 | 1004.9 |
| 20260506104529 | 23 | 158 | 20.9 | 62.8 | 0.00 | 0.00 | 0.00 | 49 | 1005.1 |
| 20260506103028 | 22 | 190 | 27.4 | 64.4 | 0.00 | 0.00 | 0.00 | 48 | 1005.6 |
| 20260506101544 | 22 | 179 | 29.0 | 57.9 | 0.00 | 0.00 | 0.00 | 50 | 1005.6 |
| 20260506100025 | 22 | 179 | 16.1 | 49.9 | 0.00 | 0.00 | 0.00 | 49 | 1005.9 |
| 20260506094523 | 22 | 204 | 27.4 | 54.7 | 0.00 | 0.00 | 0.00 | 50 | 1006.1 |
| 20260506093021 | 22 | 202 | 12.9 | 40.2 | 0.00 | 0.00 | 0.00 | 53 | 1006.1 |
| 20260506091522 | 23 | 184 | 16.1 | 38.6 | 0.00 | 0.00 | 0.00 | 47 | 1006.2 |
| 20260506090015 | 22 | 157 | 3.2 | 27.4 | 0.00 | 0.00 | 0.00 | 50 | 1006.3 |
| 20260506084518 | 22 | 142 | 8.0 | 25.7 | 0.00 | 0.00 | 0.00 | 51 | 1006.3 |
| 20260506083008 | 22 | 211 | 3.2 | 25.7 | 0.00 | 0.00 | 0.00 | 53 | 1006.3 |
| 20260506081507 | 21 | 142 | 3.2 | 20.9 | 0.00 | 0.00 | 0.00 | 54 | 1006.3 |
| 20260506073104 | 21 | 187 | 0.0 | 11.3 | 0.00 | 0.00 | 0.00 | 56 | 1006.6 |
| 20260506071607 | 21 | 186 | 0.0 | 11.3 | 0.00 | 0.00 | 0.00 | 58 | 1006.7 |
| 20260506061539 | 18 | 186 | 0.0 | 0.0 | 0.00 | 0.00 | 0.00 | 64 | 1007.0 |
| 20260506044529 | 16 | 323 | 0.0 | 0.0 | 0.00 | 0.00 | 0.00 | 73 | 1006.7 |
| 20260506043028 | 15 | 336 | 0.0 | 0.0 | 0.00 | 0.00 | 0.00 | 74 | 1006.7 |
| 20260506041531 | 15 | 336 | 0.0 | 12.9 | 0.00 | 0.00 | 0.00 | 74 | 1006.5 |
| 20260506040025 | 16 | 338 | 3.2 | 20.9 | 0.00 | 0.00 | 0.00 | 74 | 1006.4 |